DECAYED

STARLINK-3003, 48879 (Decayed)

Orbit data source: Space-Track

STARLINK-3003, 48879 was a payload satellite owned by SpaceX/Seattle (US) in LEO that was launched on Wed, 30 Jun 2021 UTC via an FALCON 9 launch vehicle from the Air Force Eastern Test Range (AFETR). Payloads include a variety of satellites, spacecraft, and rockets equipped with specific instruments for various scientific and technological missions. These include communications satellites like Starlink; space stations such as the ISS; scientific satellites like the Hubble; Earth observation satellites from companies like Planet Labs, Umbra, and HawkEye 360; GPS; miniature CubeSats for education and research; and military/defense satellites.

Not visible in the next 10 days
STARLINK-3003 details
Identifier
48879, 2021-059A
Orbit
Decayed
Last TLE update5 months ago
Origin
Flag of USSpaceX/Seattle (US)
ManufacturerSpaceX/Seattle
MissionDecayed Commercial Communications
Bus & MotorSTARLINK, Unknown motor
Mass260 kg wet, ~248 kg dry
Launch date (UTC)
2021-06-30 (4 years ago)
Launch vehicle
FALCON 9
Launch site
Air Force Eastern Test Range (AFETR)
Object type
Payload
Rocket body
Debris
Shape & HBRBox + 1 Pan, 8.86 m
Radar Cross Section13.562 m², Large (>1 m²)

Expand to show TLE details & history

TLE from 5 months ago
0 STARLINK-3003
1 48879U 21059A   24242.98330772  .23769084  27289-5  96259-3 0  9992
2 48879  97.6341  12.0143 0012559 257.6120 241.9684 16.42567573175636
Epoch: 2024-08-29T23:35Z
Definitive object data (Epoch: 2024-08-29T23:35:57.787Z)
Latitude40.20728°
Longitude-134.1715°
Altitude168.763 km
Speed7.807 km/s
True Right ascension13h 13m 55s
True Declination40° 01' 21"
Sunlit
Object was in daylight at TLE epoch
Visualization observer readout
Observer readout values are unavailable because the object's trajectory could not be propagated. This is usually caused when the trajectory data is faulty or the object's orbit has decayed.
Visualization observer readout
Observer readout values are unavailable because the object's trajectory could not be propagated. This is usually caused when the trajectory data is faulty or the object's orbit has decayed.
Orbital elements
Apogee altitude164.002 km
Perigee altitude147.59 km
Semi-major axis6,533.933 km
Eccentricity0.0012559
Inclination97.6341°
RAAN12.0143°
Arg. of periapsis257.612°
True anomaly241.84146°
Mean anomaly241.9684°
Eccentric anomaly241.90492°
Mean motion4.10943 °/min
BSTAR0.00096259
Orbital period87.6 mins
Loading maneuver chart data...
Loading historical data...
Loading historical data...
Loading historical data...
Loading historical data...
Loading historical data...
Loading historical data...
Loading historical data...

STARLINK-3003 Visibility forecast

Observer location: undefined°, undefined

This satellite is decayed
Span
Click to sort rows by Start time (UTC) header in descending order
Start Az.
Max El. time (UTC)
Max El. Az.
Max El.
End time (UTC)
End Az.
|